User: anonymous   Login
Location: Borowce
(50.8255°N, 19.6209°E)
Time: 18:06:00
(UTC+00:00)
Language:

Cosmos 1707 - Orbit

View from above orbital plane
View from above orbital plane
View from above satellite
View from above satellite

Ground track
Ground track

The orbit data is extracted from the following two-line orbital elements,

1 16326U 85113A   25196.93983930  .00017541  00000-0  33874-3 0  9999
2 16326  82.4958 162.4228 0007876  98.9973 261.2169 15.47626688165017
Epoch (UTC): 15 July 2025 22:33:22
Eccentricity: 0.0007876
inclination: 82.4958°
perigee height: 418 km
apogee height: 429 km
right ascension of ascending node: 162.4228°
argument of perigee: 98.9973°
revolutions per day: 15.47626688
mean anomaly at epoch: 261.2169°
orbit number at epoch: 16501

The dashed part of the orbit path shows where the satellite is in the earth's shadow,  

DLR